RESURS P2 (40360 NORAD) Tracking and Keplerian Element Data

This shows tracking and keplerian element data for the satellite.

Feedback or suggestion? Click here.




ElementValue
Catalog40360
NameRESURS P2
Epoch Orbit43388
Epoch Day270.17230161
Epoch Year2022
RAAN353.0831
Inclination97.2035
Eccentricity0.0010677
Argument of Perigee84.6819
Mean Anonmoly359.8421
Mean Motion15.37545708
Decay Rate5.555E-05
L11 40360U 14087A 22270.17230161 .00005555 00000+0 15274-3 0 9998
L22 40360 97.2035 353.0831 0010677 84.6819 359.8421 15.37545708433884

Live tracking and technical data element details for RESURS P2 (NORAD 40360). RESURS P2 can be tracked NOW for your location showing map with azimuth and elevation plus other details from your city location.

Track the satellite on the map from your city or location and see movement details for azimuth, elevation, latitude, longitude, range, height, and movement on the map or in text.







IsCatalogInMostPopularTable: catalog: 40360, numindb: 598
Update: records affected: 1



GetName: 40360 RESURS P2

Hit Count: updated at: Thu, 29 Sep 2022 11:56:34 GMT